Location: Curicchi
(45.0167°N, 12.0500°E)
Time: 02:28:01
(UTC+00:00)

NOSS 3-1 (A) - Pass Details

Date: 07 June 2020
Orbit: 755 x 1458 km, 63.4° (Epoch: 16 June)

Event Time Altitude Azimuth Distance (km) Brightness Sun altitude
Rises 01:16:43 0° 321° (NW) 3,961 7.0 -16.4°
Reaches altitude 10° 01:19:14 10° 321° (NW) 3,092 6.4 -16.1°
Maximum altitude 01:26:51 86° 234° (SW) 1,319 4.1 -15.4°
Drops below altitude 10° 01:35:34 10° 147° (SSE) 3,512 6.2 -14.6°
Sets 01:38:36 0° 147° (SSE) 4,524 6.7 -14.3°
